TimeCDT,TemperatureF,Dew PointF,Humidity,Sea Level PressureIn,VisibilityMPH,Wind Direction,Wind SpeedMPH,Gust SpeedMPH,PrecipitationIn,Events,Conditions,WindDirDegrees,DateUTC
12:15 AM,24.8,24.8,100,30.14,2.5,East,4.6,-,0.02,Snow,Light Snow,90,2012-11-03 05:15:00
12:35 AM,24.8,24.8,100,30.14,2.5,East,4.6,-,0.06,Snow,Light Snow,90,2012-11-03 05:35:00
12:55 AM,24.8,24.8,100,30.14,4.0,ENE,4.6,-,0.09,Snow,Light Snow,70,2012-11-03 05:55:00
1:15 AM,23.0,23.0,100,30.14,4.0,ENE,4.6,-,0.01,Snow,Light Snow,60,2012-11-03 06:15:00
1:35 AM,23.0,23.0,100,30.14,10.0,NE,5.8,-,0.01,Snow,Light Snow,50,2012-11-03 06:35:00
1:55 AM,23.0,23.0,100,30.15,10.0,NE,5.8,-,0.01,Snow,Light Snow,50,2012-11-03 06:55:00
2:15 AM,23.0,23.0,100,30.15,10.0,ENE,6.9,-,N/A,,Overcast,60,2012-11-03 07:15:00
2:35 AM,24.8,24.8,100,30.15,10.0,ENE,6.9,-,N/A,,Overcast,60,2012-11-03 07:35:00
3:15 AM,24.8,24.8,100,30.14,8.0,ENE,6.9,-,0.02,Snow,Light Snow,60,2012-11-03 08:15:00
3:35 AM,24.8,24.8,100,30.14,8.0,ENE,6.9,-,0.04,Snow,Light Snow,60,2012-11-03 08:35:00
3:55 AM,24.8,24.8,100,30.14,9.0,ENE,5.8,-,0.06,Snow,Light Snow,60,2012-11-03 08:55:00
4:15 AM,24.8,24.8,100,30.14,10.0,NE,5.8,-,N/A,Snow,Light Snow,50,2012-11-03 09:15:00
4:35 AM,24.8,24.8,100,30.14,10.0,NE,6.9,-,N/A,Rain,Freezing Rain,50,2012-11-03 09:35:00
4:55 AM,24.8,24.8,100,30.14,10.0,ENE,4.6,-,N/A,Rain,Freezing Rain,60,2012-11-03 09:55:00
5:15 AM,23.0,23.0,100,30.14,10.0,ENE,4.6,-,N/A,,Overcast,60,2012-11-03 10:15:00
5:35 AM,24.8,24.8,100,30.15,10.0,NE,4.6,-,N/A,,Overcast,50,2012-11-03 10:35:00
5:55 AM,24.8,24.8,100,30.15,10.0,NE,5.8,-,N/A,,Overcast,40,2012-11-03 10:55:00
6:15 AM,24.8,24.8,100,30.16,10.0,NNE,5.8,-,N/A,,Overcast,30,2012-11-03 11:15:00
6:35 AM,24.8,24.8,100,30.16,5.0,NNE,6.9,-,N/A,,Overcast,30,2012-11-03 11:35:00
6:55 AM,24.8,24.8,100,30.17,5.0,NNE,8.1,-,N/A,,Overcast,20,2012-11-03 11:55:00
7:15 AM,23.0,23.0,100,30.17,0.5,NE,8.1,-,N/A,Fog,Light Freezing Fog,40,2012-11-03 12:15:00
7:35 AM,23.0,23.0,100,30.17,0.5,NE,6.9,-,N/A,Fog,Light Freezing Fog,50,2012-11-03 12:35:00
7:55 AM,23.0,23.0,100,30.18,0.5,NNE,6.9,-,N/A,Fog,Light Freezing Fog,30,2012-11-03 12:55:00
8:15 AM,23.0,23.0,100,30.18,0.5,NNE,6.9,-,N/A,Fog,Light Freezing Fog,20,2012-11-03 13:15:00
8:35 AM,23.0,23.0,100,30.19,0.2,NNE,5.8,-,N/A,Fog,Light Freezing Fog,30,2012-11-03 13:35:00
8:55 AM,24.8,24.8,100,30.19,0.2,NNE,6.9,-,N/A,Fog,Light Freezing Fog,30,2012-11-03 13:55:00
9:15 AM,24.8,24.8,100,30.20,0.2,NNE,5.8,-,N/A,Fog,Light Freezing Fog,20,2012-11-03 14:15:00
9:35 AM,24.8,24.8,100,30.20,0.2,NNE,6.9,-,N/A,,Overcast,30,2012-11-03 14:35:00
9:55 AM,24.8,24.8,100,30.21,0.8,NNE,5.8,-,N/A,,Overcast,20,2012-11-03 14:55:00
10:15 AM,24.8,24.8,100,30.21,0.2,North,8.1,-,N/A,Rain,Freezing Rain,10,2012-11-03 15:15:00
10:35 AM,24.8,24.8,100,30.21,0.2,North,6.9,-,N/A,Rain,Freezing Rain,10,2012-11-03 15:35:00
10:55 AM,24.8,24.8,100,30.21,0.2,NNE,8.1,-,N/A,Fog,Light Freezing Fog,20,2012-11-03 15:55:00
11:15 AM,24.8,24.8,100,30.21,0.2,North,8.1,-,N/A,Fog,Light Freezing Fog,10,2012-11-03 16:15:00
11:35 AM,24.8,24.8,100,30.21,0.2,NNE,8.1,-,N/A,Fog,Light Freezing Fog,30,2012-11-03 16:35:00
11:55 AM,24.8,24.8,100,30.22,0.2,NE,3.5,-,N/A,Fog,Light Freezing Fog,50,2012-11-03 16:55:00
12:15 PM,24.8,24.8,100,30.22,0.2,North,-9999.0,-,N/A,Fog,Light Freezing Fog,0,2012-11-03 17:15:00
12:35 PM,24.8,24.8,100,30.22,0.2,North,5.8,-,N/A,Fog,Light Freezing Fog,10,2012-11-03 17:35:00
12:55 PM,24.8,24.8,100,30.22,0.8,NNE,8.1,-,N/A,,Overcast,20,2012-11-03 17:55:00
1:15 PM,26.6,26.6,100,30.22,0.2,NNE,6.9,-,N/A,Fog,Light Freezing Fog,20,2012-11-03 18:15:00
1:35 PM,26.6,26.6,100,30.21,0.2,North,8.1,-,N/A,Fog,Light Freezing Fog,10,2012-11-03 18:35:00
1:55 PM,26.6,26.6,100,30.22,1.0,North,6.9,-,N/A,,Overcast,10,2012-11-03 18:55:00
2:15 PM,26.6,26.6,100,30.22,0.8,NNE,6.9,-,N/A,,Overcast,20,2012-11-03 19:15:00
2:35 PM,26.6,26.6,100,30.22,3.0,NNE,5.8,-,N/A,,Overcast,20,2012-11-03 19:35:00
2:55 PM,26.6,26.6,100,30.22,7.0,NNE,5.8,-,N/A,,Overcast,20,2012-11-03 19:55:00
3:15 PM,26.6,26.6,100,30.22,8.0,North,6.9,-,N/A,,Overcast,360,2012-11-03 20:15:00
3:35 PM,26.6,26.6,100,30.22,9.0,North,5.8,-,N/A,,Overcast,360,2012-11-03 20:35:00
3:55 PM,26.6,26.6,100,30.23,10.0,North,4.6,-,N/A,,Overcast,360,2012-11-03 20:55:00
4:15 PM,26.6,26.6,100,30.23,10.0,North,3.5,-,N/A,,Overcast,360,2012-11-03 21:15:00
4:35 PM,26.6,26.6,100,30.23,10.0,NNE,3.5,-,N/A,,Overcast,20,2012-11-03 21:35:00
4:55 PM,26.6,26.6,100,30.23,10.0,NE,5.8,-,N/A,,Overcast,40,2012-11-03 21:55:00
5:15 PM,26.6,26.6,100,30.24,10.0,NNE,3.5,-,N/A,,Overcast,30,2012-11-03 22:15:00
5:35 PM,26.6,26.6,100,30.24,10.0,NNE,4.6,-,N/A,,Overcast,30,2012-11-03 22:35:00
5:55 PM,26.6,26.6,100,30.24,10.0,NE,5.8,-,N/A,,Overcast,40,2012-11-03 22:55:00
6:15 PM,26.6,26.6,100,30.24,10.0,NNE,3.5,-,N/A,,Overcast,30,2012-11-03 23:15:00
6:35 PM,26.6,26.6,100,30.24,10.0,ENE,4.6,-,N/A,,Overcast,70,2012-11-03 23:35:00
6:55 PM,26.6,26.6,100,30.24,10.0,Calm,Calm,-,N/A,,Overcast,0,2012-11-03 23:55:00
7:15 PM,26.6,26.6,100,30.24,10.0,Calm,Calm,-,N/A,,Overcast,0,2012-11-04 00:15:00
7:35 PM,26.6,26.6,100,30.24,10.0,Calm,Calm,-,N/A,,Overcast,0,2012-11-04 00:35:00
7:55 PM,26.6,26.6,100,30.24,10.0,Calm,Calm,-,N/A,,Overcast,0,2012-11-04 00:55:00
8:15 PM,26.6,26.6,100,30.25,10.0,Calm,Calm,-,N/A,,Overcast,0,2012-11-04 01:15:00
8:35 PM,26.6,26.6,100,30.25,10.0,ENE,4.6,-,N/A,,Overcast,70,2012-11-04 01:35:00
8:55 PM,26.6,26.6,100,30.25,10.0,Calm,Calm,-,N/A,,Overcast,0,2012-11-04 01:55:00
9:15 PM,26.6,26.6,100,30.25,10.0,East,3.5,-,N/A,,Overcast,100,2012-11-04 02:15:00
9:35 PM,26.6,26.6,100,30.24,10.0,Calm,Calm,-,N/A,,Overcast,0,2012-11-04 02:35:00
9:55 PM,26.6,26.6,100,30.24,10.0,Calm,Calm,-,N/A,,Overcast,0,2012-11-04 02:55:00
10:15 PM,26.6,26.6,100,30.24,10.0,ESE,4.6,-,N/A,,Overcast,110,2012-11-04 03:15:00
10:35 PM,26.6,26.6,100,30.24,10.0,SE,8.1,-,N/A,,Overcast,140,2012-11-04 03:35:00
10:55 PM,26.6,26.6,100,30.23,10.0,SE,6.9,-,N/A,,Overcast,140,2012-11-04 03:55:00
11:15 PM,26.6,26.6,100,30.23,10.0,South,5.8,-,N/A,,Overcast,180,2012-11-04 04:15:00
11:35 PM,26.6,26.6,100,30.23,10.0,SSE,3.5,-,N/A,,Overcast,160,2012-11-04 04:35:00
11:55 PM,26.6,26.6,100,30.23,10.0,South,4.6,-,N/A,,Overcast,180,2012-11-04 04:55:00